Regional Weather Roundup
Issued by NWS

Home | Current Version | Previous Version | Graphics & Text | Print | Product List | Glossary On
Versions: 1 2 3 4 5 6 7 8 9 10 11 12 13 14 15 16 17 18 19 20 21 22 23 24 25 26 27 28 29 30 31 32 33 34 35 36 37 38 39 40 41 42 43 44 45 46 47 48 49 50
000
ASUS43 KIND 220009
RWRIN

WEATHER ROUNDUP FOR INDIANA
NATIONAL WEATHER SERVICE INDIANAPOLIS IN
800 PM EDT THU MAY 21 2015

NOTE: "FAIR" INDICATES FEW OR NO CLOUDS BELOW 12,000 FEET WITH NO
SIGNIFICANT WEATHER AND/OR OBSTRUCTIONS TO VISIBILITY.

* - STATION DOES NOT REPORT WEATHER SUCH AS PRECIPITATION OR FOG.

+ - STATION NOT QUALITY CONTROLLED BY THE NATIONAL WEATHER SERVICE.
    USE DATA WITH CAUTION...ESPECIALLY DEWPOINT AND RELATIVE
    HUMIDITY OBSERVATIONS.

INZ001>003-010>013-019-020-220100-
NORTHWEST INDIANA

CITY           SKY/WX    TMP DP  RH WIND       PRES   REMARKS
GARY /AIRPORT/ SUNNY     68  34  28 W12G23    30.03F
KNOX *+        SUNNY     64  32  29 NW7       30.03S
LA PORTE +     SUNNY     65  33  30 W5        30.03F
6HR MIN TEMP:  59; 6HR MAX TEMP:  67;

MICHIGAN CITY+ SUNNY     63  32  31 W5        30.03S
MONTICELLO +   SUNNY     65  36  34 NW10      30.04S
6HR MIN TEMP:  58; 6HR MAX TEMP:  66;

RENSSELAER +   SUNNY     64  32  29 W12       30.05S
VALPARAISO     SUNNY     64  33  31 W9        30.04S
6HR MIN TEMP:  58; 6HR MAX TEMP:  67; 6HR PCP: TRACE;


$$

LMZ046-743>745-220100-
SOUTHERN LAKE MICHIGAN

STATION/POSITION TIME  TEMP    WIND        PRES    WAVE
                       AIR SEA DIR/SP/G            HT
                 (UTC) (F)     (DEG/KT/KT) (MB)    (FT)
BURNS HARBOR     0000   65     230/  3/  3 1017.3S
MICHIGAN CITY    0000   62     210/  6/  7   N/A
5NW MICH CITY    0000   58 54  210/  4/  6   N/A     0

$$

INZ004-005-014>016-021>024-220100-
NORTH CENTRAL INDIANA

CITY           SKY/WX    TMP DP  RH WIND       PRES   REMARKS
ELKHART        CLEAR     63  30  29 W10       30.02
GOSHEN         CLEAR     60  34  37 W9        30.02F
6HR MIN TEMP:  56; 6HR MAX TEMP:  62;

LOGANSPORT +   CLEAR     61  34  36 NW6       30.06S
PERU/GRISSOM   CLEAR     63  38  39 W10       30.04S
6HR MIN TEMP:  57; 6HR MAX TEMP:  64;

ROCHESTER +    CLEAR     64  34  32 NW9       30.05S
SOUTH BEND     SUNNY     63  32  31 W9        30.03F
6HR MIN TEMP:  59; 6HR MAX TEMP:  65;

WARSAW +       CLEAR     61  37  41 W10       30.04S

$$

INZ006>009-017-018-025>027-220100-
NORTHEAST INDIANA

CITY           SKY/WX    TMP DP  RH WIND       PRES   REMARKS
ANGOLA *+      CLEAR     63  52  67 NW12      30.01S
AUBURN +       CLEAR     61  30  31 W7        30.03S
FORT WAYNE     PTCLDY    61  37  41 NW9       30.04S
6HR MIN TEMP:  55; 6HR MAX TEMP:  63;

HUNTINGTON +   CLEAR     60  36  40 W5        30.04S
6HR MIN TEMP:  54; 6HR MAX TEMP:  62;


$$

INZ028-029-035-036-043>045-051>053-220100-
WEST CENTRAL INDIANA

CITY           SKY/WX    TMP DP  RH WIND       PRES   REMARKS
CRAWFORDSVL +  CLEAR     61  29  30 W8        30.08S
6HR MIN TEMP:  55; 6HR MAX TEMP:  62;

GREENCASTLE +  CLEAR     59  34  38 CALM      30.10S
LAFAYETTE      SUNNY     63  35  35 NW9       30.05F
6HR MIN TEMP:  58; 6HR MAX TEMP:  65;

TERRE HAUTE    MOSUNNY   61  42  49 SW9       30.11S
6HR MIN TEMP:  55; 6HR MAX TEMP:  63;


$$

INZ030>032-037>040-046>048-054>057-064-065-220100-
CENTRAL INDIANA

CITY           SKY/WX    TMP DP  RH WIND       PRES   REMARKS
CP ATTERBURY + CLEAR     59  41  51 W7        30.10S
FRANKFORT +    CLEAR     64  36  35 W14       30.08S
6HR MIN TEMP:  58; 6HR MAX TEMP:  66;

GREENWOOD *+   CLEAR     63  32  31 W7        30.09S
INDIANAPOLIS   PTCLDY    62  35  36 W12       30.07S
6HR MIN TEMP:  55; 6HR MAX TEMP:  64;

-EAGLE CREEK   CLEAR     61  36  39 W13       30.07S
6HR MIN TEMP:  54; 6HR MAX TEMP:  63;

KOKOMO *+      CLEAR     63  37  39 NW14      30.05S
6HR MIN TEMP:  55; 6HR MAX TEMP:  64;

MARION +       CLEAR     62  33  34 NW10      30.06S
MT COMFORT *+  CLEAR     61  19  20 NW13G18   30.08S
SHELBYVILLE    CLEAR     63  39  41 W9        30.07F
6HR MIN TEMP:  56; 6HR MAX TEMP:  64;

ZIONSVILLE +   CLEAR     62  34  34 NW6       30.08S
6HR MIN TEMP:  55; 6HR MAX TEMP:  64;


$$

INZ033-034-041-042-049-050-058-059-220100-
EAST CENTRAL INDIANA

CITY           SKY/WX    TMP DP  RH WIND       PRES   REMARKS
MUNCIE         CLEAR     60  38  43 W9        30.06S
6HR MIN TEMP:  53; 6HR MAX TEMP:  62;


$$

INZ060-061-067>069-081>083-085>088-220100-
SOUTHWEST INDIANA

CITY           SKY/WX    TMP DP  RH WIND       PRES   REMARKS
EVANSVILLE     CLEAR     59  44  57 N6        30.15F
6HR MIN TEMP:  54; 6HR MAX TEMP:  60;

HUNTINGBURG *+ CLEAR     57  43  58 NW7       30.15S
6HR MIN TEMP:  52; 6HR MAX TEMP:  57;

WASHINGTON +   CLEAR     59  38  45 W9        30.14R
6HR MIN TEMP:  55; 6HR MAX TEMP:  60;


$$

INZ062-063-066-070>080-084-089>092-220100-
SOUTH CENTRAL AND SOUTHEAST INDIANA

CITY           SKY/WX    TMP DP  RH WIND       PRES   REMARKS
BLOOMINGTON    CLEAR     59  41  51 W9        30.11S
6HR MIN TEMP:  54; 6HR MAX TEMP:  60;

MADISON *+     CLEAR     57  37  47 NW6       30.13R
NORTH VERNON + CLEAR     57  41  54 W7        30.11S
SEYMOUR +      CLEAR     61  43  51 W8        30.11F

$$



USA.gov is the U.S. government's official web portal to all federal, state and local government web resources and services.